Regional Weather Roundup
Issued by NWS Newport/Morehead, NC

Current Version | Previous Version | Graphics & Text | Print | Product List | Glossary On
Versions: 1 2 3 4 5 6 7 8 9 10 11 12 13 14 15 16 17 18 19 20 21 22 23 24 25 26 27 28 29 30 31 32 33 34 35 36 37 38 39 40 41 42 43 44 45 46 47 48 49 50
237 ASUS42 KMHX 271026 RWRMHX WEATHER ROUNDUP FOR EASTERN NORTH CAROLINA NATIONAL WEATHER SERVICE NEWPORT/MOREHEAD CITY NC 600 AM EDT THU JUL 27 2017 NOTE: "FAIR" INDICATES FEW OR NO CLOUDS BELOW 12,000 FEET WITH NO SIGNIFICANT WEATHER AND/OR OBSTRUCTIONS TO VISIBILITY NCZ015>017-031-032-045>047-102-103-271100- NORTH COAST CITY SKY/WX TMP DP RH WIND PRES REMARKS EDENTON PTCLDY 71 67 88 CALM 30.08R ELIZABETH CITY PTCLDY 70 69 97 S3 30.07F KITTY HAWK MOSUNNY 71 68 92 CALM 30.06S MANTEO CLEAR 67 65 94 CALM 30.08S $$ NCZ045>047-081-094-103-104-271100- CENTRAL COAST CITY SKY/WX TMP DP RH WIND PRES REMARKS FRISCO CLEAR 69 65 86 E3 30.06S $$ NCZ095-097-098-100-101-271100- SOUTHERN COAST CITY SKY/WX TMP DP RH WIND PRES REMARKS BEAUFORT CLEAR 71 71 100 CALM 30.07R CEDAR ISLAND NOT AVBL JACKSONVILLE CLEAR 70 70 100 CALM 30.07R PINEY ISLAND SUNNY N/A N/A N/A SE5 30.07R WILMINGTON CLEAR 70 69 97 NE3 30.07S $$ NCZ011>013-027>030-043-044-078>080-089-090>093-098-271100- COASTAL PLAIN CITY SKY/WX TMP DP RH WIND PRES REMARKS AHOSKIE N/A 67 66 97 CALM 30.07S CLINTON CLEAR 69 69 100 CALM 30.08S ELIZABETHTOWN NOT AVBL GOLDSBORO CLEAR 69 69 100 CALM 30.06S GREENVILLE CLEAR 68 68 100 CALM 30.09R HAVELOCK CLEAR 68 66 93 CALM 30.08R KENANSVILLE CLEAR 64 64 100 CALM 30.08S FOG KINSTON CLEAR 66 65 95 CALM 30.08S NEW BERN CLEAR 69 68 96 CALM 30.08S RICHLANDS CLEAR 67 66 97 CALM 30.08S ROCKY MOUNT PTCLDY 69 68 96 CALM 30.08R WASHINGTON N/A 69 67 93 CALM 30.07S WHITEVILLE CLEAR 68 67 96 CALM 30.07S $$ AMZ130-135-150-152-154-156-158-170-250-252-270-ANZ085-086-088-633-658-670-271100- MARINE OBSERVATIONS STATION/POSITION TIME TEMP WIND PRES WAVE SWELL AIR SEA DIR/SP/G HT/PER HT/PER (UTC) (F) (DEG/KT/KT) (MB) (FT/S) (FT/S) CHESAPEAKE LIGHT NOT AVBL 64 E VA BEACH 0950 74 77 110/ 2/ 2 1019.0 3/ 7 3/ 7 DUCK 1000 74 73 140/ 4/ 5 1017.9 2 E DUCK 1000 74 N/A 3/ 6 OREGON INLET 1000 74 76 80/ 3/ 3 1018.2 13E OREGON INLT 0948 78 N/A 3/ 7 3/ 7 HATTERAS CG 1000 75 78 60/ 2/ 3 1018.0 DIAMOND BUOY 0950 80 84 100/ 6/ 8 1018.1 3/ 8 3/ 8 CAPE LOOKOUT 1000 79 130/ 6/ 7 1018.0 BEAUFORT LAB 1000 76 79 130/ 2/ 3 1017.6 30 SE NEW RVR IN 1008 80 84 110/ 6/ 10 1018.3 30 SE NEW RVR IN 0943 83 N/A 3/ 6 27 SE WRIGHTSVLE 1008 81 83 120/ 10/ 14 1018.1 5 SE WRIGHTSVLE 1008 80 81 120/ 10/ 14 1018.0 225 S CAPE HAT 0950 81 83 250/ 10/ 12 1017.3 2/ 7 2/ 7 41 SE CHARLESTON 1010 79 82 10/ 2/ 4 1017.1 $$

USA.gov is the U.S. government's official web portal to all federal, state and local government web resources and services.